[[{"header":{"parameterUnit":"m.s-1","parameterCategory":1,"la1":30.2991,"la2":30.254,"lo1":-89.0895,"lo2":-89.0444,"dy":0.0017,"dx":0.0017,"nx":28,"ny":28,"refTime":"2023-10-13T09:00:00:Z","depth":0,"parameterNumber":2,"parameterNumberName":"U-component_of_WINDS"},"data":[0,0,0,0,0,0,0,0,0,0,0,0,0,0,0,0,0,0,0,0,0,0,0,0,0,0,0,0,0,0,0,0,0,0,0,0,0,0,0,0,0,0,0,0,0,0,0,0,0,0,0,0,0,0,0,0,0,0,3.765,3.765,0,3.7693,3.7694,3.7694,3.7623,3.7621,3.7618,3.7616,3.7659,3.7662,3.7666,0,0,0,0,0,0,0,0,0,0,0,0,0,3.7506,3.7509,3.765,3.765,3.7651,3.7693,3.7694,3.7694,3.7624,3.7621,3.7618,3.7615,3.7658,3.7662,3.7666,0,0,0,0,0,0,0,0,0,0,0,0,0,3.7561,3.751,3.765,3.7621,3.7618,3.7693,3.7694,3.7694,3.7624,3.7621,3.7617,3.7614,3.7656,3.7661,3.7666,3.7771,0,0,3.7682,3.7684,0,0,0,0,0,0,0,0,3.7558,3.7566,3.7624,3.7623,3.7621,3.7649,3.7659,3.772,3.7625,3.7622,3.7616,3.7612,3.7659,3.7663,3.7679,3.7773,3.7775,3.7683,3.7686,3.7688,3.7689,0,0,0,0,0,0,0,3.7554,3.7564,3.7667,3.7625,3.7623,3.7606,3.7609,3.767,3.766,3.7622,3.7617,3.7623,3.7657,3.7675,3.768,3.7775,3.7682,3.7687,3.769,3.7692,3.796,3.7963,0,0,0,0,0,0,3.7554,3.7561,3.7665,3.7668,3.758,3.7611,3.7615,3.7644,3.7659,3.7658,3.7626,3.762,3.7668,3.7674,3.7681,3.7806,3.7688,3.7693,3.7695,3.7956,3.7961,3.7965,0,0,0,0,0,0,3.7551,3.7564,3.7664,3.7613,3.7625,3.7618,3.765,3.7646,3.7664,3.7662,3.766,3.7646,3.7665,3.7674,3.775,3.7807,3.7695,3.7699,3.7951,3.7957,3.7963,3.8056,0,0,0,0,0,0,3.7547,3.7563,3.7602,3.7615,3.7628,3.7732,3.7653,3.765,3.7673,3.7665,3.7681,3.768,3.7663,3.7743,3.7755,3.7812,3.7703,3.7946,3.7954,3.7961,3.8048,3.8065,3.8079,0,0,0,0,0,3.7542,3.7626,3.7605,3.7618,3.7677,3.7735,3.7743,3.7722,3.7678,3.7718,3.7717,3.7679,3.7798,3.7751,3.7764,3.7823,3.7942,3.7951,3.796,3.8041,3.8061,3.8079,0,0,0,0,0,0,3.7619,3.7627,3.7603,3.7694,3.7715,3.7723,3.7772,3.7744,3.7777,3.7768,3.774,3.7744,3.7827,3.7832,3.7779,3.7927,3.7863,3.7875,3.792,3.7939,3.7954,3.7952,3.7708,0,0,0,0,0,3.7647,3.7694,3.7698,3.7777,3.7789,3.778,3.7804,3.7787,3.7807,3.7815,3.782,3.7841,3.7883,3.7911,3.795,3.8049,3.8052,3.8096,3.8112,3.8124,3.8135,3.819,3.8211,3.7995,3.7995,3.7995,0,0,3.7704,3.7714,3.7745,3.7793,3.7807,3.7857,3.7787,3.7842,3.7879,3.7823,3.7896,3.7901,3.7922,3.8011,3.805,3.8018,3.8196,3.8136,3.8146,3.815,3.8202,3.8222,3.8241,3.8001,3.8,3.7999,0,0,3.7834,3.7846,3.7914,3.7931,3.7954,3.7947,3.7964,3.7978,3.7979,3.8052,3.8012,3.8055,3.8128,3.8146,3.8165,3.8305,3.8272,3.8319,3.84,3.8454,3.8471,3.8486,3.8538,3.8556,3.8329,3.833,3.833,0,3.7902,3.7975,3.7953,3.8012,3.8035,3.7988,3.8058,3.8075,3.8109,3.8126,3.809,3.8183,3.8194,3.8288,3.8322,3.8338,3.8358,3.8317,3.847,3.8485,3.8499,3.8548,3.8567,3.8335,3.8335,3.8334,3.8334,0,3.8059,3.8111,3.8164,3.82,3.8229,3.8293,3.8281,3.8313,3.8294,3.8292,3.8368,3.838,3.8421,3.8442,3.8423,3.8534,3.8514,3.8475,3.841,3.8525,3.8571,3.859,3.8343,3.8341,3.834,3.8338,0,0,3.8237,3.8262,3.8282,3.8299,3.8322,3.8362,3.8425,3.8467,3.8496,3.8522,3.8575,3.8639,3.8604,3.8625,3.8608,3.8656,3.8769,3.8611,3.8611,3.8641,3.8894,3.8925,3.8947,3.8747,3.8751,3.8754,3.8893,0,3.8368,3.8477,3.846,3.8566,3.8615,3.8572,3.8628,3.8648,3.8649,3.869,3.869,3.8737,3.8686,3.8699,3.8744,3.8746,3.882,3.8735,3.8797,3.88,3.8794,3.897,3.9002,3.9132,3.8911,3.8914,3.8916,0,3.8534,3.8568,3.868,3.8698,3.8718,3.8768,3.8806,3.8847,3.887,3.8867,3.8893,3.8868,3.8932,3.8867,3.8955,3.8898,3.8923,3.8928,3.8932,3.8938,3.8865,3.8982,3.9173,3.9194,3.8944,3.8941,3.8939,0,3.8655,3.8729,3.8805,3.8821,3.8844,3.8881,3.8892,3.8911,3.8939,3.8973,3.899,3.9031,3.9053,3.9085,3.9073,3.9026,3.9165,3.9098,3.9165,3.9165,3.9196,3.9194,3.9396,3.921,3.921,3.921,3.9209,0,3.8803,3.8873,3.886,3.8908,3.8986,3.8966,3.9044,3.905,3.9069,3.9117,3.9082,3.9128,3.9108,3.9153,3.9144,3.922,3.923,3.923,3.9227,3.9234,3.9234,3.9249,3.924,3.9215,3.9214,3.9213,3.9212,0,3.8951,3.8945,3.9026,3.9043,3.9048,3.9105,3.9119,3.9164,3.9163,3.9224,3.9238,3.9235,3.9287,3.9278,3.9334,3.9328,3.9424,3.9408,3.9416,3.9413,3.9481,3.9476,3.97,3.973,3.9525,3.9527,3.9528,0,3.9046,3.91,3.9123,3.9153,3.9168,3.9217,3.9245,3.9229,3.926,3.9292,3.9334,3.9383,3.9421,3.9506,3.9509,3.9553,3.9539,3.9615,3.9545,3.9552,3.9542,3.954,3.9546,3.9629,3.9631,3.9633,3.9635,0,3.9217,3.9212,3.9255,3.9298,3.9333,3.9365,3.9394,3.9421,3.9408,3.9445,3.9498,3.9528,3.9587,3.9636,3.9678,3.9689,3.9661,3.9657,3.9675,3.9683,3.9686,3.9687,3.9455,3.9652,3.965,3.9649,3.9648,3.9647,3.9342,3.9389,3.9413,3.9463,3.9483,3.9512,3.9556,3.9561,3.9605,3.9653,3.9641,3.9702,3.9726,3.9779,3.9796,3.9843,3.9815,3.9841,3.9848,3.9854,3.9864,3.9678,3.9851,3.985,3.985,3.9849,3.9849,0,3.9512,3.9527,3.9572,3.9616,3.9655,3.9626,3.9657,3.9692,3.9746,3.9772,3.9811,3.9874,3.9922,3.9931,3.9977,4.0014,4.0003,4.0027,4.0025,4.0028,3.9885,3.9866,4.0036,4.0036,4.0036,4.0036,4.0036,4.0036,3.9606,3.9684,3.9682,3.9771,3.9784,3.9845,3.9866,3.9893,3.9913,3.9985,4.0026,4.0032,4.0051,4.0099,4.0143,4.0144,4.0164,4.0194,4.019,4.0057,4.0038,4.002,4.0002,4.0198,4.0198,4.033,4.0331,4.0332]},{"header":{"parameterUnit":"m.s-1","parameterCategory":1,"la1":30.2991,"la2":30.254,"lo1":-89.0895,"lo2":-89.0444,"dy":0.0017,"dx":0.0017,"nx":28,"ny":28,"refTime":"2023-10-13T09:00:00:Z","depth":0,"parameterNumber":3,"parameterNumberName":"V-component_of_WINDS"},"data":[0,0,0,0,0,0,0,0,0,0,0,0,0,0,0,0,0,0,0,0,0,0,0,0,0,0,0,0,0,0,0,0,0,0,0,0,0,0,0,0,0,0,0,0,0,0,0,0,0,0,0,0,0,0,0,0,0,0,-4.2135,-4.2136,0,-4.2205,-4.2206,-4.2207,-4.2179,-4.2177,-4.2175,-4.2174,-4.2241,-4.2244,-4.2247,0,0,0,0,0,0,0,0,0,0,0,0,0,-4.1974,-4.1977,-4.2135,-4.2136,-4.2137,-4.2205,-4.2206,-4.2207,-4.2179,-4.2177,-4.2175,-4.2173,-4.224,-4.2243,-4.2247,0,0,0,0,0,0,0,0,0,0,0,0,0,-4.2044,-4.1978,-4.2135,-4.2131,-4.2132,-4.2205,-4.2206,-4.2207,-4.2179,-4.2177,-4.2174,-4.2172,-4.2238,-4.2243,-4.2248,-4.2328,0,0,-4.2263,-4.2265,0,0,0,0,0,0,0,0,-4.204,-4.205,-4.2131,-4.2132,-4.2132,-4.2181,-4.2174,-4.2247,-4.218,-4.2161,-4.2174,-4.2171,-4.2222,-4.2228,-4.2247,-4.2331,-4.2334,-4.2264,-4.2267,-4.2269,-4.227,0,0,0,0,0,0,0,-4.2035,-4.2046,-4.2163,-4.2132,-4.2133,-4.2125,-4.2132,-4.2187,-4.2204,-4.2162,-4.2161,-4.217,-4.2222,-4.2242,-4.2248,-4.2335,-4.2263,-4.2268,-4.2271,-4.2273,-4.2488,-4.249,0,0,0,0,0,0,-4.203,-4.2043,-4.216,-4.2165,-4.2079,-4.213,-4.2138,-4.2167,-4.2204,-4.2207,-4.2172,-4.2168,-4.2235,-4.2242,-4.225,-4.2346,-4.2269,-4.2273,-4.2276,-4.2485,-4.2488,-4.2491,0,0,0,0,0,0,-4.2027,-4.2041,-4.2158,-4.2103,-4.2117,-4.2135,-4.2169,-4.217,-4.219,-4.2211,-4.2213,-4.2189,-4.2233,-4.2243,-4.2309,-4.2348,-4.2276,-4.228,-4.2482,-4.2486,-4.249,-4.2539,0,0,0,0,0,0,-4.2023,-4.204,-4.2071,-4.2104,-4.2121,-4.2216,-4.2171,-4.2173,-4.2199,-4.2195,-4.2228,-4.2231,-4.2232,-4.2302,-4.2314,-4.2354,-4.2284,-4.2478,-4.2484,-4.2489,-4.2534,-4.2544,-4.2553,0,0,0,0,0,-4.2017,-4.2081,-4.2073,-4.2087,-4.216,-4.2219,-4.2228,-4.2229,-4.2203,-4.2234,-4.2247,-4.223,-4.2342,-4.2309,-4.2322,-4.2364,-4.2476,-4.2482,-4.2488,-4.2529,-4.2542,-4.2553,0,0,0,0,0,0,-4.205,-4.2085,-4.2077,-4.2154,-4.2184,-4.2214,-4.2253,-4.2243,-4.2279,-4.2274,-4.2273,-4.2281,-4.2348,-4.2363,-4.2325,-4.2443,-4.2405,-4.2414,-4.2431,-4.2444,-4.2453,-4.2448,-4.2288,0,0,0,0,0,-4.2067,-4.2113,-4.2141,-4.2206,-4.2222,-4.2235,-4.226,-4.2259,-4.229,-4.2302,-4.232,-4.2348,-4.239,-4.2418,-4.2457,-4.2536,-4.2542,-4.2571,-4.2581,-4.2589,-4.2596,-4.2639,-4.2652,-4.2512,-4.2512,-4.2511,0,0,-4.2101,-4.2126,-4.2155,-4.2213,-4.2236,-4.2283,-4.2245,-4.2296,-4.233,-4.2309,-4.2372,-4.2387,-4.2419,-4.2492,-4.2524,-4.2505,-4.2637,-4.2596,-4.2603,-4.2606,-4.2647,-4.266,-4.2672,-4.2516,-4.2515,-4.2514,0,0,-4.2187,-4.2211,-4.2268,-4.2293,-4.2329,-4.2338,-4.2352,-4.2384,-4.2393,-4.2458,-4.2443,-4.2483,-4.2555,-4.2579,-4.26,-4.2697,-4.2683,-4.271,-4.276,-4.2801,-4.2812,-4.2822,-4.2857,-4.2869,-4.2718,-4.2718,-4.2718,0,-4.2225,-4.2296,-4.2299,-4.2351,-4.2377,-4.2362,-4.242,-4.2443,-4.2489,-4.2507,-4.2486,-4.2577,-4.2597,-4.2676,-4.27,-4.2718,-4.2733,-4.2706,-4.2811,-4.2821,-4.283,-4.2863,-4.2876,-4.2721,-4.2721,-4.272,-4.272,0,-4.234,-4.239,-4.2431,-4.2479,-4.251,-4.2564,-4.2575,-4.2605,-4.2602,-4.2613,-4.2678,-4.2703,-4.2748,-4.2766,-4.2762,-4.2844,-4.2831,-4.2811,-4.2772,-4.2846,-4.2877,-4.289,-4.2725,-4.2724,-4.2723,-4.2723,0,0,-4.2448,-4.2498,-4.2513,-4.2535,-4.2575,-4.2612,-4.2666,-4.2712,-4.2738,-4.2771,-4.2816,-4.2878,-4.286,-4.2884,-4.2883,-4.292,-4.2996,-4.2895,-4.2896,-4.2912,-4.3087,-4.3102,-4.3116,-4.2987,-4.2989,-4.2991,-4.3084,0,-4.2537,-4.2633,-4.2638,-4.2725,-4.2771,-4.2758,-4.2805,-4.2834,-4.2846,-4.2885,-4.2897,-4.2942,-4.2914,-4.2929,-4.2965,-4.2979,-4.303,-4.2972,-4.3027,-4.3029,-4.3019,-4.3132,-4.3148,-4.3234,-4.3096,-4.3098,-4.3099,0,-4.2653,-4.2692,-4.2784,-4.2819,-4.2838,-4.288,-4.2923,-4.2961,-4.2994,-4.3,-4.3028,-4.3022,-4.3077,-4.3037,-4.3112,-4.3072,-4.3095,-4.3105,-4.3108,-4.3113,-4.3068,-4.3139,-4.3262,-4.3275,-4.3118,-4.3117,-4.3116,0,-4.2722,-4.2797,-4.2863,-4.2882,-4.2923,-4.2953,-4.2972,-4.3002,-4.3029,-4.3066,-4.3084,-4.3126,-4.3149,-4.3181,-4.3187,-4.3157,-4.3261,-4.3222,-4.3267,-4.3267,-4.3288,-4.3287,-4.3416,-4.3304,-4.3304,-4.3304,-4.3304,0,-4.282,-4.2877,-4.2894,-4.2934,-4.2998,-4.3003,-4.3065,-4.3081,-4.3108,-4.315,-4.3141,-4.318,-4.3186,-4.3226,-4.3231,-4.3292,-4.3302,-4.3308,-4.3308,-4.3308,-4.3307,-4.3322,-4.3316,-4.3307,-4.3307,-4.3306,-4.3305,0,-4.2908,-4.2921,-4.2992,-4.3026,-4.3036,-4.3081,-4.311,-4.3148,-4.316,-4.3213,-4.3226,-4.3244,-4.3291,-4.33,-4.3355,-4.3358,-4.3431,-4.3426,-4.3421,-4.342,-4.3464,-4.346,-4.3607,-4.3626,-4.3502,-4.3504,-4.3505,0,-4.2969,-4.3013,-4.3053,-4.3082,-4.3102,-4.3148,-4.3177,-4.3183,-4.3213,-4.3254,-4.3287,-4.3334,-4.3372,-4.3448,-4.3465,-4.3507,-4.3502,-4.3551,-4.3508,-4.3507,-4.3502,-4.35,-4.3504,-4.3559,-4.356,-4.3561,-4.3562,0,-4.3077,-4.3082,-4.3124,-4.317,-4.3205,-4.3241,-4.3274,-4.3298,-4.3309,-4.3343,-4.3392,-4.3422,-4.348,-4.3526,-4.3569,-4.3586,-4.3576,-4.3576,-4.3588,-4.3588,-4.3584,-4.3586,-4.3442,-4.3572,-4.3571,-4.357,-4.357,-4.3569,-4.3153,-4.3191,-4.3226,-4.3274,-4.3301,-4.3333,-4.337,-4.3388,-4.343,-4.3479,-4.348,-4.3534,-4.3565,-4.3622,-4.3643,-4.3684,-4.3668,-4.3686,-4.3691,-4.3695,-4.3699,-4.3578,-4.3692,-4.3691,-4.3691,-4.3691,-4.3691,0,-4.3259,-4.3282,-4.3326,-4.3375,-4.3412,-4.3402,-4.3439,-4.347,-4.3519,-4.355,-4.3588,-4.3645,-4.3691,-4.3712,-4.3757,-4.3786,-4.3782,-4.3797,-4.3794,-4.3799,-4.3711,-4.3695,-4.3799,-4.3799,-4.3799,-4.3799,-4.3799,-4.3799,-4.3319,-4.3384,-4.3394,-4.3472,-4.3494,-4.3548,-4.357,-4.3599,-4.3625,-4.3689,-4.3728,-4.3742,-4.377,-4.3816,-4.3857,-4.3862,-4.3879,-4.3896,-4.3898,-4.3816,-4.3805,-4.3794,-4.378,-4.39,-4.39,-4.3983,-4.3983,-4.3984]}]]